Home   Weather   Cranbrook   Past weeks

Flag for Canada Past Weather in Cranbrook, British Columbia, Canada — Yesterday and Last 2 Weeks

Now
63 °F

Passing clouds.


Feels Like: 63 °F
Forecast: 53 / 83 °F
Wind: 5 mph from West

Location: Cranbrook

Current Time: Aug 17, 2017 at 3:53:06 am

Latest Report: Aug 17, 2017 at 3:00 am


Visibility: 25 mi

Pressure: 29.91 "Hg (26.80 "Hg at 933m altitude)

Humidity: 49%

Dew Point: 43 °F

Location of CranbrookLocation

Past Weather in Cranbrook — Graph

°F

Cranbrook Temperature Yesterday

Maximum temperature yesterday: 82 °F (at 3:00 pm)
Minimum temperature yesterday: 46 °F (at 6:00 am)
Average temperature yesterday: 66 °F

High & Low Weather Summary for the Past Weeks

 TemperatureHumidityPressure
High91 °F (Aug 12, 4:00 pm)100% (Aug 14, 4:03 am)30.27 "Hg (Aug 14, 4:03 am)
Low41 °F (Aug 15, 4:00 am)16% (Aug 11, 7:00 pm)29.71 "Hg (Aug 13, 10:00 am)
Average70 °F43%29.95 "Hg
* Reported Aug 2 2:00 am — Aug 17 2:00 am, Cranbrook. Weather by CustomWeather, © 2017

Note: Actual official high and low records may vary slightly from our data, if they occured in-between our weather recording intervals... More about our weather records

Advertising

Cranbrook Weather History for the Previous 24 Hours

Scroll right to see more
 ConditionsComfort  
Time TempWeatherWind HumidityBarometerVisibility
2:00 am
Thu, Aug 17
66 °FPassing clouds.2 mph43%29.90 "Hg25 mi
1:00 am68 °FPassing clouds.6 mph38%29.88 "Hg25 mi
12:00 am68 °FPartly cloudy.3 mph38%29.88 "Hg25 mi
11:00 pm
Wed, Aug 16
66 °FPartly cloudy.3 mph40%29.87 "Hg25 mi
10:00 pm73 °FPartly cloudy.3 mph31%29.87 "Hg25 mi
9:00 pm75 °FBroken clouds.5 mph29%29.86 "Hg25 mi
8:00 pm77 °FPartly sunny.5 mph28%29.86 "Hg25 mi
7:00 pm79 °FPartly sunny.7 mph24%29.85 "Hg25 mi
6:00 pm82 °FBroken clouds.13 mph21%29.85 "Hg20 mi
5:00 pm82 °FBroken clouds.12 mph21%29.84 "Hg20 mi
4:00 pm82 °FBroken clouds.6 mph23%29.85 "Hg20 mi
3:00 pm82 °FScattered clouds.10 mph23%29.87 "Hg20 mi
2:00 pm79 °FScattered clouds.12 mph26%29.89 "Hg15 mi
1:00 pm75 °FPartly sunny.8 mph31%29.92 "Hg15 mi
12:00 pm70 °FPartly sunny.7 mph35%29.95 "Hg10 mi
11:00 am66 °FPartly sunny.5 mph40%29.98 "Hg10 mi
10:00 am59 °FPartly sunny.No wind51%29.99 "Hg10 mi
9:00 am57 °FScattered clouds.No wind55%29.99 "Hg15 mi
8:00 am52 °FPassing clouds.3 mph67%29.99 "Hg15 mi
7:00 am48 °FPassing clouds.2 mph71%29.98 "Hg15 mi
6:00 am46 °FPassing clouds.3 mph71%29.97 "Hg12 mi
5:00 am50 °FPassing clouds.2 mph67%29.95 "Hg10 mi
4:00 am54 °FPassing clouds.No wind58%29.94 "Hg10 mi
3:00 am52 °FPassing clouds.3 mph58%29.93 "Hg10 mi
Weather by CustomWeather, © 2017

See weather overviewHow to use our weather pages